Weather in Kal'tovka

Russia / Republic of Bashkortostan     54°40′47″N   56°36′58″E
temp.,
°C
wind,
m/s
gust,
m/s
humid.,
%
clouds,
%
prec.,
mm/h
press.,
hPa
HPBL,
m
28 february, sun
sun2823:00−10ese51088100 0.2 1003294
02:00−11ese4795100 0.3 1002205
05:00−10ese4695100 1.3 1001195
08:00−9ese3596100 1.1 1001185
11:00−6e2495100 1.9 1001247
14:00−3ese2292100 0.7 1001314
17:00−2nnw229599 1.0 1002206
20:00−5nw3497100 0.6 1005102
1 march, mon
mon123:00−8nnw239798 0.8 100846
02:00−11nw239691 0.3 101032
05:00−13wnw349694 0.6 1012116
08:00−14w249698 0.4 1013124
11:00−13w339296 0.6 1015318
14:00−11w3488100 0.3 1015488
17:00−12w4592100 0.4 1017422
20:00−16w339799 0.2 101765
2 march, tue
tue223:00−19wsw239892 0.2 101827
02:00−20sw2399100 0.1 101848
05:00−21s3499100 0.1 101780
08:00−22s499993 0.0 1016178
11:00−18s7129492 0.0 1014371
14:00−14s81392100 0.0 1010437
17:00−13ssw91594100 0.3 1008509
20:00−14ssw91594100 1.2 1007624
3 march, wed
wed323:00−13s81493100 2.1 1005579
02:00−10s81594100 0.9 1002541
05:00−7s81594100 2.8 1000583
08:00−5s61295100 1.0 998491
11:00−3ssw6995100 2.0 997537
14:00−2sw5796100 0.5 997521
17:00−2wsw5795100 1.1 998518
20:00−5nw61094100 0.6 999521
4 march, thu
thu423:00−7wnw4796100 0.7 1002229
02:00−9w3696100 0.2 1003138
05:00−9nw3796100 0.3 1005170
08:00−10wnw359799 0.1 1006101
11:00−9wnw479499 0.3 1007351
14:00−7w5790100 0.1 1008552
17:00−7wsw5789100 0.1 1009624
20:00−9ssw6129399 0.0 1009374